This demonstration page uses our WeatherBlox Daily Observations layout. Learn more.

36.17497, -115.13722

Hourly Observations for July 27, 2015

Temp ( °F °C ) Dew Point ( °F °C ) Humidity (%) Winds ( mph kmh ) Pressure ( in mb ) Visibility ( mi km ) Precip ( " mm )
12:53 am 00:53 Clear 86 30 38 3.3 18 18 S 10 17 29.71 1006 10 16.0934 0 0
1:53 am 01:53 Clear 85 29.4 38 3.3 19 19 S 10 17 29.7 1006 10 16.0934 0 0
2:53 am 02:53 Clear 84 28.9 41 5 22 22 S 10 17 29.69 1005 10 16.0934 0 0
3:53 am 03:53 Clear 82 27.8 41 5 23 23 ESE 7 11 29.69 1005 10 16.0934 0 0
4:43 am 04:43 Clear 82 27.8 41 5 23 23 S 16 26 29.59 1002 10 16.0934 0 0
4:53 am 04:53 Clear 81 27.2 41 5 24 24 S 16 26 29.7 1006 10 16.0934 0 0
5:53 am 05:53 Sunny 79 26.1 40 4.4 25 25 SE 6 9 29.72 1007 10 16.0934 0 0
6:53 am 06:53 Sunny 81 27.2 40 4.4 23 23 NNW 6 9 29.76 1008 10 16.0934 0 0
7:53 am 07:53 Sunny 83 28.3 40 4.4 22 22 N 15 24 29.79 1009 10 16.0934 0 0
8:53 am 08:53 Sunny 87 30.6 38 3.3 18 18 NNW 22 35 29.8 1009 10 16.0934 0 0
9:53 am 09:53 Sunny 91 32.8 36 2.2 14 14 NNW 18 30 29.81 1010 10 16.0934 0 0
10:53 am 10:53 Sunny 93 33.9 35 1.7 13 13 Calm 29.82 1010 10 16.0934 0 0
11:53 am 11:53 Sunny 94 34.4 33 0.6 12 12 VRB 5 7 29.81 1010 10 16.0934 0 0
12:53 pm 12:53 Sunny 96 35.6 35 1.7 12 12 VRB 7 11 29.8 1009 10 16.0934 0 0
1:53 pm 13:53 Sunny 96 35.6 31 -0.6 10 10 SSE 8 13 29.78 1009 10 16.0934 0 0
2:53 pm 14:53 Sunny 97 36.1 32 0 10 10 SSW 7 11 29.76 1008 10 16.0934 0 0
3:53 pm 15:53 Sunny 99 37.2 33 0.6 10 10 VRB 7 11 29.74 1007 10 16.0934 0 0
4:53 pm 16:53 Sunny 100 37.8 27 -2.8 7 7 S 6 9 29.72 1007 10 16.0934 0 0
5:53 pm 17:53 Sunny 100 37.8 24 -4.4 7 7 SSE 10 17 29.71 1006 10 16.0934 0 0
6:53 pm 18:53 Sunny 99 37.2 25 -3.9 7 7 SSW 5 7 29.71 1006 10 16.0934 0 0
7:53 pm 19:53 Clear 97 36.1 30 -1.1 9 9 Calm 29.73 1007 10 16.0934 0 0
8:53 pm 20:53 Clear 94 34.4 31 -0.6 11 11 E 6 9 29.74 1007 10 16.0934 0 0
9:53 pm 21:53 Clear 91 32.8 34 1.1 13 13 N 8 13 29.76 1008 10 16.0934 0 0
10:53 pm 22:53 Clear 89 31.7 33 0.6 14 14 NNE 8 13 29.78 1008 10 16.0934 0 0
11:53 pm 23:53 Clear 86 30 35 1.7 16 16 NW 7 11 29.79 1009 10 16.0934 0 0

Powered by AerisWeather